Helena, MT

12:39 AM MST on December 11, 2016 (GMT -0700)
Helena Regional

Weather History for KHLN - January, 2014

Change the Weather History Date:

Friday, January 3, 2014

  Actual Average Record
Temperature  
Mean Temperature 38 °F 21 °F  
Max Temperature 53 °F 31 °F 59 °F (1893)
Min Temperature 23 °F 11 °F -30 °F (1950)
Degree Days  
Heating Degree Days 27 44  
Month to date heating degree days 88 132  
Since 1 July heating degree days 3146 3353  
Cooling Degree Days 0 0  
Month to date cooling degree days 0 0  
Year to date cooling degree days 0 0  
Moisture  
Dew Point 23 °F    
Average Humidity 63    
Maximum Humidity 92    
Minimum Humidity 33    
Precipitation  
Precipitation 0.02 in 0.02 in 1.03 in (1884)
Month to date precipitation 0.02 0.04  
Year to date precipitation 0.02 0.04  
Snow  
Snow 0.30 in 0.20 in 10.30 in (1884)
Month to date snowfall 0.3 0.6  
Since 1 July snowfall 5.0 16.7  
Snow Depth 0.00 in    
Sea Level Pressure  
Sea Level Pressure 29.83 in    
Wind  
Wind Speed 17 mph (West)    
Max Wind Speed 41 mph    
Max Gust Speed 56 mph    
Visibility 7 miles    
Events Snow    
T = Trace of Precipitation, MM = Missing Value Source: NWS Daily Summary

Daily Weather History Graph

Daily Weather History Graph

Search for Another Location

Airport or City:

Trip Planner

Search our weather history database for the weather conditions in past years. The results will help you decide how hot, cold, wet, or windy it might be!

Date:

Astronomy

Jan. 03, 2014 Rise Set
Actual Time 8:12 AM MST 4:53 PM MST
Civil Twilight 7:37 AM MST 5:28 PM MST
Nautical Twilight 6:59 AM MST 6:06 PM MST
Astronomical Twilight 6:22 AM MST 6:42 PM MST
Moon 9:29 AM MST (1/3) 8:19 PM MST (1/3)
Length of Visible Light 9h 50m
Length of Day
8h 41m
Waxing Crescent, 8% of the Moon is Illuminated
Jan 3
Waxing Crescent
Jan 7
First Quarter
Jan 15
Full
Jan 23
Last Quarter
Jan 30
New

Hourly Weather History & Observations

Time (MST) Temp. Windchill Dew Point Humidity Pressure Visibility Wind Dir Wind Speed Gust Speed Precip Events Conditions
12:53 AM 33.1 °F 30.0 °F 25.0 °F 72% 29.77 in 10.0 mi Variable 3.5 mph - N/A   Mostly Cloudy
1:48 AM 46.4 °F 39.2 °F 26.6 °F 46% 29.62 in 10.0 mi South 18.4 mph 27.6 mph N/A   Partly Cloudy
1:53 AM 48.0 °F - 26.1 °F 42% 29.67 in 10.0 mi SSE 15.0 mph 24.2 mph N/A   Partly Cloudy
2:53 AM 46.9 °F - 26.1 °F 44% 29.64 in 10.0 mi SSE 16.1 mph 24.2 mph N/A   Mostly Cloudy
3:53 AM 48.0 °F - 26.1 °F 42% 29.60 in 10.0 mi SE 10.4 mph 18.4 mph N/A   Overcast
4:53 AM 52.0 °F - 26.1 °F 37% 29.57 in 10.0 mi WSW 16.1 mph 24.2 mph N/A   Overcast
5:53 AM 46.9 °F - 30.9 °F 54% 29.60 in 10.0 mi West 36.8 mph 49.5 mph 0.00 in   Overcast
6:53 AM 46.0 °F 38.0 °F 30.0 °F 54% 29.60 in 10.0 mi West 21.9 mph 39.1 mph N/A   Overcast
7:53 AM 43.0 °F 32.4 °F 28.9 °F 58% 29.63 in 10.0 mi West 31.1 mph 41.4 mph N/A   Scattered Clouds
8:53 AM 39.0 °F 29.0 °F 28.0 °F 65% 29.70 in 10.0 mi West 20.7 mph 36.8 mph N/A   Mostly Cloudy
9:53 AM 39.9 °F 28.6 °F 19.9 °F 45% 29.73 in 10.0 mi WNW 28.8 mph 44.9 mph N/A   Partly Cloudy
10:53 AM 39.9 °F 29.5 °F 17.1 °F 40% 29.75 in 10.0 mi West 24.2 mph 41.4 mph N/A   Clear
11:53 AM 41.0 °F 29.8 °F 17.1 °F 38% 29.74 in 10.0 mi West 29.9 mph 48.3 mph N/A   Partly Cloudy
12:53 PM 39.9 °F 27.8 °F 12.9 °F 33% 29.73 in 10.0 mi West 33.4 mph 55.2 mph N/A   Clear
1:53 PM 41.0 °F 29.5 °F 16.0 °F 36% 29.77 in 10.0 mi WNW 32.2 mph 43.7 mph N/A   Clear
2:53 PM 36.0 °F 23.7 °F 21.0 °F 55% 29.83 in 10.0 mi NNW 26.5 mph 29.9 mph N/A   Overcast
3:53 PM 28.0 °F 15.7 °F 24.1 °F 85% 29.93 in 5.0 mi North 17.3 mph - 0.00 in Snow Light Snow
4:04 PM 26.6 °F 14.3 °F 24.8 °F 93% 29.85 in 1.8 mi NNW 16.1 mph - 0.00 in Snow Light Snow
4:13 PM 26.6 °F 16.2 °F 24.8 °F 93% 29.86 in 1.0 mi NNW 11.5 mph - 0.00 in Snow Light Snow
4:20 PM 26.6 °F 15.7 °F 24.8 °F 93% 29.86 in 0.8 mi NNW 12.7 mph - 0.01 in Snow Light Snow
4:51 PM 26.6 °F 18.2 °F 24.8 °F 93% 29.88 in 1.2 mi WNW 8.1 mph - 0.02 in Snow Light Snow
4:53 PM 27.0 °F 18.0 °F 24.1 °F 89% 29.97 in 1.2 mi WNW 9.2 mph - 0.02 in Snow Light Snow
4:58 PM 26.6 °F 19.1 °F 24.8 °F 93% 29.88 in 2.0 mi WNW 6.9 mph - 0.00 in Snow Light Snow
5:06 PM 26.6 °F 17.5 °F 24.8 °F 93% 29.89 in 3.0 mi WNW 9.2 mph - 0.00 in Snow Light Snow
5:33 PM 26.6 °F 19.1 °F 24.8 °F 93% 29.89 in 4.0 mi West 6.9 mph - 0.00 in Snow Light Snow
5:41 PM 26.6 °F 18.2 °F 24.8 °F 93% 29.90 in 2.5 mi West 8.1 mph - 0.00 in Snow Light Snow
5:45 PM 26.6 °F 18.2 °F 24.8 °F 93% 29.90 in 3.0 mi West 8.1 mph - 0.00 in Snow Light Snow
5:53 PM 27.0 °F 18.7 °F 24.1 °F 89% 30.01 in 4.0 mi West 8.1 mph - 0.00 in Snow Light Snow
6:53 PM 26.1 °F 20.5 °F 23.0 °F 88% 30.02 in 10.0 mi WSW 4.6 mph - 0.00 in   Overcast
7:53 PM 27.0 °F 19.5 °F 21.9 °F 81% 30.05 in 4.0 mi West 6.9 mph - 0.00 in Snow Light Snow
8:53 PM 25.0 °F 16.3 °F 21.9 °F 88% 30.06 in 10.0 mi West 8.1 mph - 0.00 in   Overcast
9:53 PM 26.1 °F 20.5 °F 21.0 °F 81% 30.08 in 10.0 mi West 4.6 mph - N/A   Overcast
10:53 PM 26.1 °F 20.5 °F 21.0 °F 81% 30.09 in 8.0 mi NW 4.6 mph - 0.00 in Snow Light Snow
11:53 PM 24.1 °F 19.7 °F 19.9 °F 84% 30.09 in 10.0 mi WNW 3.5 mph - 0.00 in   Overcast